Regional Weather Roundup
Issued by NWS

Home | Current Version | Previous Version | Text Only | Print | Product List | Glossary On
Versions: 1 2 3 4 5 6 7 8 9 10 11 12 13 14 15 16 17 18 19 20 21 22 23 24 25 26 27 28 29 30 31 32 33 34 35 36 37 38 39 40 41 42 43 44 45 46 47 48 49 50
488
ASUS44 KLIX 240110
RWRLA
LOUISIANA WEATHER ROUNDUP
NATIONAL WEATHER SERVICE NEW ORLEANS LA
800 PM CDT THU OCT 23 2014

NOTE: "FAIR" INDICATES FEW OR NO CLOUDS BELOW 12,000 FEET WITH NO
      SIGNIFICANT WEATHER AND/OR OBSTRUCTIONS TO VISIBILITY.
      SKY/WX - SKY CONDITION AND SIGNIFICANT WEATHER.
      TMP - AIR TEMPERATURE.    DP   - DEWPOINT TEMPERATURE.
      RH  - RELATIVE HUMIDITY.  PRES - PRESSURE.
      HX  - HEAT INDEX.         WCI  - WIND CHILL INDEX.

*  THESE STATIONS ARE NOT NWS OR FAA STATIONS AND ARE NOT UNDER
   NWS QUALITY CONTROL.

LAZ040-048-061>063-065-066-069-240200-
SOUTHEAST LOUISIANA

CITY           SKY/WX    TMP DP  RH WIND       PRES   REMARKS
N.O. AUDUBON     N/A     67  53  61 MISG        N/A
N.O. INTL ARPT CLOUDY    67  50  54 NW3       30.06R
N.O. LAKEFRONT CLOUDY    70  48  45 CALM      30.07R
N.O. DOWNTOWN* FAIR      70  46  43 CALM      30.07R
SLIDELL        CLOUDY    63  56  78 CALM      30.06R
BATON ROUGE    PTCLDY    61  52  72 CALM      30.09R
BOOTHVILLE     PTCLDY    69  60  73 N5        30.06R
BELLE CHASSE   CLOUDY    60  54  80 CALM      30.06R
BOGALUSA*      FAIR      62  50  64 N3        30.09R
NEW ROADS*     FAIR      61  53  74 N8        30.10R
GONZALES*      FAIR      60  58  93 CALM      30.07R
HAMMOND*       CLOUDY    63  50  63 N3        30.09R
HOUMA*         CLOUDY    63  51  65 E3        30.06S
PORT FOURCHON* CLEAR     70  50  49 NE9       30.09R

$$

LAZ041-044-053-054-240200-
SOUTHWEST LOUISIANA

CITY           SKY/WX    TMP DP  RH WIND       PRES   REMARKS
LAKE CHARLES   PTCLDY    60  54  80 NE3       30.09R
LAFAYETTE      PTCLDY    63  51  65 N7        30.09R
PATTERSON      MOCLDY    63  55  77 MISG      30.09R
SALT POINT       N/A     67  55  65 CALM      30.06R
NEW IBERIA     PTCLDY    62  53  72 N6        30.09R
CHENAULT AIRPK CLEAR     61  55  82 NE3       30.10

$$

LAZ027-028-240200-
CENTRAL LOUISIANA

CITY           SKY/WX    TMP DP  RH WIND       PRES   REMARKS
FORT POLK      CLEAR     59  53  79 NE6       30.11R
ALEXANDRIA INT CLEAR     57  52  83 CALM      30.10R
ALEXANDRIA     PTCLDY    52  51  97 CALM      30.12R

$$

LAZ001-002-240200-
NORTHWEST LOUISIANA

CITY           SKY/WX    TMP DP  RH WIND       PRES   REMARKS
SHREVEPORT     PTCLDY    58  51  78 CALM      30.12R
BARKSDALE AFB  CLEAR     58  50  76 NE3       30.12R
DTN SHREVEPORT CLEAR     59  50  72 E3        30.12R

$$

LAZ014-016-240200-
NORTHEAST LOUISIANA

CITY           SKY/WX    TMP DP  RH WIND       PRES   REMARKS
MONROE         CLEAR     53  50  89 CALM      30.14S
TALLULAH       PTCLDY    55  49  80 N5        30.13R

$$




USA.gov is the U.S. government's official web portal to all federal, state and local government web resources and services.